7 * 24
多渠道服务支持
STARLINK-32739 是 SpaceX Starlink 项目中的一颗低轨通信卫星,属于第 6 批次发射的星链卫星群。该卫星于 2023 年发射,运行在约 550 公里的轨道高度,旨在为全球用户提供高速互联网服务。Starlink 卫星采用先进的相控阵天线和激光通信技术,具备高带宽和低延迟特性,支持偏远地区的网络接入。STARLINK-32739 与其他星链卫星协同工作,提升星座覆盖密度和通信稳定性,是 SpaceX 构建全球宽带网络的重要组成部分。
美国
(US)
| 数据来源 | 国际轨道数据 |
| 星历时间: | 2025-11-07T05:44:43+0800 20小时前 查看轨道信息 |
| 半长轴: | 6861.092km |
| 偏心率: | 0.0001649 |
| 轨道倾角: | 43.002° |
| 近地点辐角 | 278.861° |
| 升交点赤经 | 262.362° |
| 平近点角 | 81.205° |
| 近地点: | 481.825km |
| 远地点: | 484.089km |
| 周期: | 94.265分钟 |
| 每日圈数: | 15.276115 |